Regional Weather Roundup
Issued by NWS

Home | Current Version | Previous Version | Graphics & Text | Print | Product List | Glossary On
Versions: 1 2 3 4 5 6 7 8 9 10 11 12 13 14 15 16 17 18 19 20 21 22 23 24 25 26 27 28 29 30 31 32 33 34 35 36 37 38 39 40 41 42 43 44 45 46 47 48
000
ASUS43 KMPX 190810
RWRMN
WEATHER ROUNDUP FOR MINNESOTA
NATIONAL WEATHER SERVICE TWIN CITIES/CHANHASSEN MN
300 AM CDT THU APR 19 2018


NOTE: "FAIR" INDICATES FEW OR NO CLOUDS BELOW 12,000 FEET WITH NO
SIGNIFICANT WEATHER AND/OR OBSTRUCTIONS TO VISIBILITY. N/A MEANS
CURRENT SKY AND/OR WEATHER CONDITIONS ARE NOT AVAILABLE.

MNZ060>063-068>070-190900-
   Twin Cities Metro

CITY           SKY/WX    TMP DP  RH WIND       PRES   REMARKS
TWIN CITIES    FAIR      28  17  63 CALM      30.29R
ST PAUL        FAIR      30  15  53 NW5       30.30R WCI  25
CRYSTAL        FAIR      24  15  68 W5        30.28R WCI  18
BLAINE         FAIR      25  16  68 CALM      30.28S
LAKEVILLE      FAIR      28  16  59 CALM      30.28S
EDEN PRAIRIE   FAIR      31  14  49 N3        30.26F
SOUTH ST PAUL  FAIR      28  16  62 CALM      30.29R
LAKE ELMO      FAIR      25  16  68 CALM      30.29R
$$
MNZ001>005-007-008-013>017-022>024-027-028-190900-
   Northwest Minnesota

CITY           SKY/WX    TMP DP  RH WIND       PRES   REMARKS
BEMIDJI        FAIR      25  19  79 W3        30.31R
HALLOCK        FAIR      34  28  80 S3        30.33R
ROSEAU         FAIR      30  25  80 CALM      30.33R
WARROAD        FAIR      25  16  68 CALM      30.33R
THIEF RVR FALL FAIR      30  18  60 CALM      30.33R
CROOKSTON      FAIR      34  27  75 NE3       30.34R
FOSSTON        FAIR      25   9  50 CALM      30.33R
DETROIT LAKES  FAIR      32  27  80 CALM      30.33R
MOORHEAD       FAIR      30  28  93 CALM      30.33S
PARK RAPIDS    FAIR      27  19  72 CALM      30.30R
MAHNOMEN       FAIR      30  20  67 E3        30.32R
$$
MNZ006-009>011-018-025>026-190900-
   North Central Minnesota

CITY           SKY/WX    TMP DP  RH WIND       PRES   REMARKS
BAUDETTE       FAIR      27  22  81 CALM      30.30R
FLAG ISLAND    FAIR      25  18  74 NW5       30.31R WCI  19
INTL FALLS     FAIR      22  19  89 CALM      30.30R
WASKISH        FAIR      23  19  86 CALM      30.31R
BIG FORK       FAIR      21  18  86 CALM      30.30R
LONGVILLE      FAIR      25  18  74 CALM      30.31R
GRAND RAPIDS   FAIR      25  15  66 CALM      30.31R
CRANE LAKE     FAIR      16  16 100 CALM      30.32R
ORR            FAIR      21  12  68 CALM      30.27R
COOK           FAIR      21  18  86 CALM      30.29R
WALKER         FAIR      26  15  63 W3        30.31R
$$
MNZ012-019>021-037-190900-
   Northeast Minnesota

CITY           SKY/WX    TMP DP  RH WIND       PRES   REMARKS
DULUTH         FAIR      29  10  45 N6        30.27R WCI  23
ELY            FAIR      19  16  86 CALM      30.28R
HIBBING        FAIR      21  17  84 CALM      30.27S
EVELETH        FAIR      21  19  89 CALM      30.29R
DULUTH HARBOR  FAIR      27  19  74 CALM      30.30R
TWO HARBORS    FAIR      32  18  55 NW3       30.26R
SILVER BAY     FAIR      23  19  86 CALM      30.26R
GRAND MARAIS     N/A     37  15  40 CALM      30.26R
G MARAIS ARPRT FAIR      27   9  46 NW3       30.24S
$$
MNZ029>031-032-039>041-046>048-054>057-064-190900-
   West Central Minnesota

CITY           SKY/WX    TMP DP  RH WIND       PRES   REMARKS
FERGUS FALLS   FAIR      36  25  64 E6        30.31S
WHEATON        PTCLDY    32  28  86 W5        30.35R WCI  27
MORRIS         PTCLDY    34  30  86 SE6       30.32S WCI  29
ALEXANDRIA     FAIR      32  21  64 CALM      30.33R
ELBOW LAKE     FAIR      32  29  89 SE5       30.32S WCI  27
WADENA         FAIR      27  21  80 CALM      30.32R
GLENWOOD       FAIR      32  25  74 CALM      30.33R
APPLETON       PTCLDY    32  27  80 E3        30.34R
BENSON         PTCLDY    28  25  86 CALM      30.35R
ORTONVILLE     CLOUDY    34  28  80 CALM      30.33R
MADISON        CLOUDY    34  28  80 E8        30.34R WCI  27
WILLMAR        FAIR      32  25  74 NW6       30.35R WCI  26
$$
MNZ033>034-036-042>043-049>051-058-059-190900-
   Central Minnesota

CITY           SKY/WX    TMP DP  RH WIND       PRES   REMARKS
ST CLOUD       FAIR      29  16  58 NW3       30.31R
SAUK CENTRE    FAIR      31  24  75 CALM      30.33R
PAYNESVILLE    FAIR      29  25  83 CALM      30.33R
AITKIN         FAIR      21  18  86 CALM      30.29R
PINE RIVER     FAIR      25  18  74 CALM      30.34R
BRAINERD       FAIR      27  14  58 CALM      30.31R
STAPLES        FAIR      25  18  74 CALM      30.32R
LONG PRAIRIE   FAIR      27  21  80 CALM      30.32R
LITTLE FALLS   FAIR      27  12  54 CALM      30.32R
LITCHFIELD     FAIR      30  19  64 NW3       30.32R
BUFFALO        FAIR      25  17  72 CALM      30.31R
MAPLE LAKE     FAIR      29  19  64 NW5       30.32R WCI  24
HUTCHINSON     FAIR      25  18  73 W3        30.32R
$$
MNZ037-044-045-052-053-190900-
   East Central Minnesota

CITY           SKY/WX    TMP DP  RH WIND       PRES   REMARKS
PRINCETON      FAIR      25  18  74 CALM      30.30R
MORA           FAIR      27  16  63 W3        30.30R
RUSH CITY      FAIR      28  16  60 N5        30.28R WCI  23
MOOSE LAKE     FAIR      21  16  79 CALM      30.27R
HINCKLEY       FAIR      30  12  47 CALM      30.28R
CLOQUET        FAIR      27  10  50 NW7       30.27R WCI  19
MCGREGOR       FAIR      27  21  80 CALM      30.29R
$$
MNZ071>073-080-081-089-090-097-098-190900-
   Southwest Minnesota

CITY           SKY/WX    TMP DP  RH WIND       PRES   REMARKS
MONTEVIDEO     CLOUDY    28  23  80 CALM      30.34R
GRANITE FALLS  CLOUDY    31  26  81 NE8       30.35S WCI  23
CANBY          CLOUDY    33  27  79 NE5       30.34R WCI  28
MARSHALL       CLOUDY    28  24  85 CALM      30.33R
REDWOOD FALLS  MOCLDY    30  17  58 W5        30.32R WCI  25
OLIVIA         PTCLDY    34  23  64 N5        30.32R WCI  30
PIPESTONE      CLEAR    N/A N/A N/A CALM      30.30R
WINDOM           N/A     27  10  50 N12       30.30R WCI  16
WORTHINGTON    PTCLDY    23  19  85 N14       30.29R WCI  11
JACKSON        CLOUDY    28  23  80 NW9       30.29R WCI  20
TRACY          PTCLDY    28  23  80 N6        30.32R WCI  22
SLAYTON        PTCLDY    31  19  62 N8        30.31R WCI  24
$$
MNZ065>067-074>077-082>085-091>093-190900-
   South Central Minnesota

CITY           SKY/WX    TMP DP  RH WIND       PRES   REMARKS
MANKATO        FAIR      24  19  81 NW5       30.30R WCI  18
NEW ULM        CLOUDY    30  16  55 N3        30.31R
ST JAMES       CLOUDY    27  18  69 N7        30.31R WCI  19
FAIRMONT       CLOUDY    26  21  81 N10       30.30R WCI  16
GLENCOE        FAIR      26  18  71 W5        30.29R WCI  20
FARIBAULT      FAIR      21  18  86 CALM      30.28R
OWATONNA       FAIR      19  18  93 CALM      30.27R
WASECA         FAIR      23  18  80 N10       30.28S WCI  12
ALBERT LEA     FAIR      25  21  86 N5        30.27R WCI  19
$$
MNZ078>079-086>088-094>096-190900-
   Southeast Minnesota

CITY           SKY/WX    TMP DP  RH WIND       PRES   REMARKS
ROCHESTER      FAIR      23  21  92 NW9       30.24R WCI  13
RED WING       FAIR      28  14  54 CALM      30.27R
STANTON        FAIR      20  17  89 CALM      30.27R
DODGE CENTER   FAIR      21  18  86 NW8       30.26R WCI  12
WINONA         FAIR      30  28  93 CALM      30.23R
AUSTIN         FAIR      25  21  86 NW7       30.25R WCI  17
PRESTON        FAIR      26  21  82 N7        30.23R WCI  18
$$
ABBREVIATIONS USED IN REMARKS
   TC - TEMPERATURES IN CELSIUS
  WCI - WIND CHILL INDEX
   HX - HEAT INDEX
  VSB - VISIBILITY
$$




USA.gov is the U.S. government's official web portal to all federal, state and local government web resources and services.